[[{"header":{"parameterUnit":"m.s-1","parameterCategory":1,"la1":30.2991,"la2":30.254,"lo1":-89.0895,"lo2":-89.0444,"dy":0.0017,"dx":0.0017,"nx":28,"ny":28,"refTime":"2025-09-02T09:00:00:Z","depth":0,"parameterNumber":2,"parameterNumberName":"U-component_of_WINDS"},"data":[0,0,0,0,0,0,0,0,0,0,0,0,0,0,0,0,0,0,0,0,0,0,0,0,0,0,0,0,0,0,0,0,0,0,0,0,0,0,0,0,0,0,0,0,0,0,0,0,0,0,0,0,0,0,0,0,0,0,-1.8114,-1.8113,0,-1.8072,-1.8071,-1.8071,-1.8002,-1.8001,-1.8,-1.7999,-1.7956,-1.7956,-1.7956,0,0,0,0,0,0,0,0,0,0,0,0,0,-1.8138,-1.8138,-1.8114,-1.8113,-1.8113,-1.8072,-1.8071,-1.8071,-1.8002,-1.8001,-1.7999,-1.7998,-1.7956,-1.7956,-1.7956,0,0,0,0,0,0,0,0,0,0,0,0,0,-1.8115,-1.8138,-1.8114,-1.8074,-1.807,-1.8072,-1.8071,-1.8071,-1.8003,-1.8001,-1.7999,-1.7997,-1.7956,-1.7956,-1.7956,-1.7994,0,0,-1.7956,-1.7956,0,0,0,0,0,0,0,0,-1.8116,-1.8114,-1.808,-1.8077,-1.8072,-1.804,-1.8064,-1.8045,-1.8003,-1.8028,-1.7999,-1.7996,-1.7986,-1.7983,-1.7979,-1.7992,-1.7991,-1.7956,-1.7956,-1.7956,-1.7957,0,0,0,0,0,0,0,-1.8118,-1.8115,-1.8097,-1.808,-1.8075,-1.8059,-1.8053,-1.806,-1.8018,-1.8026,-1.8021,-1.8017,-1.7983,-1.798,-1.7978,-1.799,-1.7956,-1.7956,-1.7957,-1.7957,-1.8035,-1.8036,0,0,0,0,0,0,-1.8125,-1.8117,-1.8099,-1.8096,-1.809,-1.806,-1.8054,-1.8052,-1.8018,-1.8011,-1.8018,-1.8014,-1.798,-1.7978,-1.7976,-1.802,-1.7956,-1.7957,-1.7957,-1.8033,-1.8035,-1.8037,0,0,0,0,0,0,-1.8126,-1.8124,-1.81,-1.8105,-1.8101,-1.8061,-1.806,-1.8053,-1.8049,-1.8012,-1.8004,-1.8022,-1.7979,-1.7976,-1.7991,-1.8017,-1.7957,-1.7957,-1.803,-1.8033,-1.8036,-1.8106,0,0,0,0,0,0,-1.8127,-1.8125,-1.8138,-1.8106,-1.8101,-1.8115,-1.8062,-1.8053,-1.8049,-1.8043,-1.8014,-1.8007,-1.7977,-1.7991,-1.7991,-1.8016,-1.7957,-1.8028,-1.8032,-1.8035,-1.8102,-1.8111,-1.812,0,0,0,0,0,-1.8128,-1.8159,-1.8139,-1.8137,-1.8117,-1.8117,-1.8114,-1.8078,-1.8052,-1.8065,-1.8042,-1.8008,-1.8015,-1.7993,-1.7992,-1.8018,-1.8026,-1.803,-1.8035,-1.8097,-1.811,-1.812,0,0,0,0,0,0,-1.8195,-1.8154,-1.8131,-1.8153,-1.8139,-1.8105,-1.8121,-1.8092,-1.8085,-1.8079,-1.8036,-1.803,-1.8051,-1.8036,-1.8013,-1.8055,-1.8015,-1.802,-1.8063,-1.8074,-1.8083,-1.8086,-1.7957,0,0,0,0,0,-1.8212,-1.8215,-1.8179,-1.8202,-1.8196,-1.816,-1.8159,-1.8133,-1.8117,-1.811,-1.8088,-1.8074,-1.8073,-1.8073,-1.807,-1.81,-1.8093,-1.8117,-1.8127,-1.8134,-1.8139,-1.8155,-1.8166,-1.8052,-1.8052,-1.8052,0,0,-1.8248,-1.8226,-1.823,-1.8215,-1.8201,-1.8206,-1.8155,-1.8162,-1.8165,-1.8111,-1.8124,-1.8108,-1.8089,-1.8112,-1.8121,-1.81,-1.8169,-1.814,-1.8147,-1.8147,-1.8161,-1.8172,-1.8181,-1.8055,-1.8055,-1.8054,0,0,-1.8315,-1.8298,-1.8316,-1.8304,-1.8283,-1.826,-1.8264,-1.8235,-1.8223,-1.8235,-1.8195,-1.8199,-1.8198,-1.8187,-1.8181,-1.8248,-1.8217,-1.8248,-1.8296,-1.8313,-1.8322,-1.8329,-1.8354,-1.8363,-1.8253,-1.8253,-1.8253,0,-1.8361,-1.8366,-1.8329,-1.8339,-1.8334,-1.8286,-1.8305,-1.8294,-1.8275,-1.8273,-1.825,-1.8249,-1.8233,-1.8254,-1.8271,-1.8267,-1.8272,-1.825,-1.8323,-1.8331,-1.8337,-1.836,-1.837,-1.8257,-1.8256,-1.8256,-1.8256,0,-1.8425,-1.843,-1.8447,-1.8429,-1.8427,-1.8441,-1.8407,-1.8409,-1.8384,-1.8363,-1.8378,-1.8358,-1.835,-1.8354,-1.8329,-1.8372,-1.836,-1.8331,-1.829,-1.8353,-1.8374,-1.8382,-1.8263,-1.8261,-1.826,-1.8259,0,0,-1.8531,-1.8495,-1.8501,-1.8494,-1.8469,-1.8472,-1.8486,-1.8479,-1.8482,-1.8471,-1.8482,-1.8483,-1.8457,-1.8451,-1.8426,-1.844,-1.8496,-1.841,-1.8409,-1.8427,-1.8543,-1.8565,-1.8575,-1.8476,-1.8478,-1.8479,-1.8545,0,-1.8593,-1.8612,-1.858,-1.8608,-1.8612,-1.8568,-1.858,-1.8567,-1.8549,-1.8551,-1.8531,-1.8533,-1.8498,-1.8495,-1.8507,-1.8487,-1.8519,-1.8482,-1.8486,-1.8487,-1.8492,-1.8586,-1.8608,-1.8671,-1.8553,-1.8554,-1.8555,0,-1.8667,-1.866,-1.8688,-1.8664,-1.8665,-1.8676,-1.8669,-1.8671,-1.8656,-1.8642,-1.8637,-1.8607,-1.862,-1.8582,-1.86,-1.8575,-1.8576,-1.8566,-1.8568,-1.8566,-1.8524,-1.8587,-1.869,-1.87,-1.8567,-1.8566,-1.8565,0,-1.8742,-1.874,-1.8757,-1.8752,-1.8724,-1.8733,-1.8722,-1.8706,-1.8705,-1.8699,-1.8698,-1.8694,-1.8691,-1.8689,-1.866,-1.8635,-1.8682,-1.8641,-1.8671,-1.8672,-1.8682,-1.8682,-1.8787,-1.8683,-1.8683,-1.8683,-1.8683,0,-1.8814,-1.8833,-1.879,-1.88,-1.8821,-1.8786,-1.8807,-1.8792,-1.8779,-1.8786,-1.8749,-1.8757,-1.8718,-1.8722,-1.87,-1.8719,-1.8718,-1.8707,-1.8701,-1.871,-1.8712,-1.8709,-1.8704,-1.8686,-1.8685,-1.8685,-1.8684,0,-1.89,-1.8872,-1.8888,-1.8861,-1.8855,-1.8872,-1.885,-1.8859,-1.8839,-1.885,-1.885,-1.882,-1.8823,-1.8794,-1.8792,-1.8777,-1.8807,-1.8793,-1.8812,-1.8807,-1.8839,-1.8837,-1.8946,-1.8959,-1.8848,-1.8849,-1.885,0,-1.8948,-1.8961,-1.8937,-1.894,-1.8931,-1.8935,-1.8934,-1.8901,-1.8901,-1.8888,-1.8899,-1.89,-1.8898,-1.8906,-1.8884,-1.8883,-1.8869,-1.8908,-1.8869,-1.8878,-1.887,-1.887,-1.8871,-1.8916,-1.8917,-1.8918,-1.8919,0,-1.9035,-1.9022,-1.9021,-1.9018,-1.9018,-1.9013,-1.9006,-1.901,-1.8974,-1.8977,-1.898,-1.898,-1.8979,-1.898,-1.8975,-1.8965,-1.8937,-1.8932,-1.8939,-1.8948,-1.8958,-1.8954,-1.8834,-1.8929,-1.8928,-1.8927,-1.8927,-1.8926,-1.9104,-1.9115,-1.91,-1.9101,-1.9093,-1.9088,-1.9096,-1.9078,-1.908,-1.9076,-1.9057,-1.9064,-1.9052,-1.9043,-1.9036,-1.9042,-1.9023,-1.9033,-1.9036,-1.9039,-1.9045,-1.8958,-1.9041,-1.9041,-1.904,-1.904,-1.904,0,-1.919,-1.9179,-1.9181,-1.9172,-1.9175,-1.9148,-1.914,-1.9143,-1.915,-1.9141,-1.9141,-1.9146,-1.9149,-1.9128,-1.9128,-1.9137,-1.9124,-1.9138,-1.9137,-1.9135,-1.9061,-1.9055,-1.9149,-1.9149,-1.9149,-1.9149,-1.9148,-1.9148,-1.9234,-1.9252,-1.9237,-1.9251,-1.9239,-1.9246,-1.9244,-1.924,-1.9232,-1.924,-1.9241,-1.9228,-1.9215,-1.9214,-1.9216,-1.921,-1.9212,-1.923,-1.922,-1.9151,-1.914,-1.913,-1.9124,-1.9231,-1.9231,-1.9294,-1.9294,-1.9295]},{"header":{"parameterUnit":"m.s-1","parameterCategory":1,"la1":30.2991,"la2":30.254,"lo1":-89.0895,"lo2":-89.0444,"dy":0.0017,"dx":0.0017,"nx":28,"ny":28,"refTime":"2025-09-02T09:00:00:Z","depth":0,"parameterNumber":3,"parameterNumberName":"V-component_of_WINDS"},"data":[0,0,0,0,0,0,0,0,0,0,0,0,0,0,0,0,0,0,0,0,0,0,0,0,0,0,0,0,0,0,0,0,0,0,0,0,0,0,0,0,0,0,0,0,0,0,0,0,0,0,0,0,0,0,0,0,0,0,2.9441,2.9441,0,2.9417,2.9417,2.9417,2.9471,2.9473,2.9475,2.9476,2.9444,2.9442,2.9439,0,0,0,0,0,0,0,0,0,0,0,0,0,2.9527,2.9525,2.9441,2.9441,2.9441,2.9418,2.9417,2.9417,2.9471,2.9473,2.9475,2.9477,2.9445,2.9442,2.9439,0,0,0,0,0,0,0,0,0,0,0,0,0,2.9495,2.9524,2.9441,2.9465,2.9467,2.9418,2.9417,2.9417,2.9471,2.9473,2.9476,2.9478,2.9446,2.9442,2.9439,2.9363,0,0,2.9427,2.9426,0,0,0,0,0,0,0,0,2.9496,2.9491,2.9462,2.9463,2.9465,2.945,2.9436,2.9398,2.947,2.9469,2.9477,2.948,2.9443,2.944,2.943,2.9361,2.936,2.9427,2.9425,2.9423,2.9422,0,0,0,0,0,0,0,2.9499,2.9493,2.9432,2.9461,2.9463,2.9475,2.9473,2.9429,2.9441,2.9469,2.9473,2.947,2.9445,2.9433,2.9429,2.9359,2.9427,2.9424,2.9421,2.942,2.9226,2.9223,0,0,0,0,0,0,2.9499,2.9494,2.9432,2.9431,2.9488,2.9471,2.9469,2.9452,2.9442,2.9443,2.9468,2.9473,2.9438,2.9434,2.9428,2.9337,2.9423,2.9419,2.9417,2.9229,2.9226,2.9222,0,0,0,0,0,0,2.95,2.9493,2.9433,2.9464,2.9457,2.9467,2.9447,2.945,2.9439,2.9441,2.9443,2.9454,2.944,2.9434,2.9379,2.9337,2.9418,2.9414,2.9232,2.9228,2.9224,2.9156,0,0,0,0,0,0,2.9503,2.9493,2.9466,2.9463,2.9455,2.9386,2.9445,2.9448,2.9433,2.9439,2.9428,2.9429,2.9442,2.9384,2.9375,2.9333,2.9411,2.9236,2.923,2.9225,2.9162,2.915,2.9139,0,0,0,0,0,2.9506,2.9446,2.9464,2.9456,2.9422,2.9384,2.9379,2.9397,2.943,2.9401,2.9403,2.9429,2.9344,2.9378,2.9368,2.9325,2.9239,2.9232,2.9226,2.9167,2.9152,2.914,0,0,0,0,0,0,2.944,2.9446,2.9466,2.9404,2.9393,2.9393,2.9357,2.9381,2.9358,2.9365,2.9386,2.9383,2.9323,2.9319,2.9357,2.925,2.9297,2.9288,2.9255,2.9241,2.923,2.9231,2.9408,0,0,0,0,0,2.942,2.9391,2.9396,2.9341,2.9335,2.9347,2.9331,2.9346,2.9335,2.9329,2.9327,2.9313,2.9283,2.9262,2.9235,2.9163,2.916,2.9128,2.9117,2.9107,2.9098,2.9058,2.9044,2.9201,2.9201,2.9201,0,0,2.9374,2.9374,2.9354,2.9328,2.9321,2.9288,2.9342,2.9305,2.928,2.9323,2.9271,2.9269,2.9255,2.9191,2.9162,2.9185,2.9055,2.9099,2.9092,2.9088,2.905,2.9035,2.9022,2.9197,2.9197,2.9198,0,0,2.9276,2.9273,2.9227,2.922,2.921,2.9219,2.9208,2.9204,2.9205,2.9155,2.9186,2.9156,2.9104,2.9092,2.9079,2.8978,2.9,2.8968,2.8908,2.8869,2.8856,2.8845,2.8807,2.8793,2.896,2.896,2.896,0,2.922,2.9174,2.9199,2.916,2.9147,2.9188,2.9139,2.913,2.9111,2.9099,2.9127,2.9063,2.9056,2.8989,2.8964,2.8954,2.8939,2.8968,2.8857,2.8846,2.8836,2.8799,2.8785,2.8956,2.8956,2.8956,2.8957,0,2.9105,2.9073,2.9036,2.9019,2.9002,2.8958,2.8975,2.8954,2.8971,2.8977,2.8924,2.8918,2.8889,2.8875,2.889,2.881,2.8824,2.8854,2.89,2.8817,2.8782,2.8769,2.895,2.8951,2.8952,2.8953,0,0,2.8961,2.8961,2.8947,2.8939,2.8933,2.8907,2.8865,2.884,2.8821,2.8807,2.877,2.8726,2.8754,2.8739,2.8754,2.872,2.8637,2.8753,2.8753,2.873,2.8546,2.8522,2.8505,2.8654,2.8652,2.865,2.8546,0,2.8862,2.8792,2.8814,2.8742,2.8711,2.875,2.8713,2.8704,2.8708,2.8681,2.8685,2.8653,2.8693,2.8684,2.8653,2.8654,2.86,2.8662,2.8617,2.8615,2.8617,2.8488,2.8462,2.8365,2.8533,2.8531,2.853,0,2.8736,2.8719,2.8645,2.8644,2.8632,2.8598,2.8577,2.8552,2.8541,2.8547,2.8532,2.8554,2.851,2.8559,2.8498,2.8539,2.8523,2.8521,2.8517,2.8511,2.8565,2.8475,2.8335,2.8319,2.8509,2.8511,2.8512,0,2.8635,2.8595,2.8545,2.8538,2.8536,2.8511,2.8508,2.8501,2.8485,2.8466,2.8455,2.8431,2.8416,2.8396,2.8409,2.8444,2.8345,2.8396,2.8345,2.8345,2.832,2.832,2.8171,2.8314,2.8314,2.8314,2.8315,0,2.852,2.8472,2.85,2.8469,2.8416,2.8442,2.8388,2.839,2.8383,2.8351,2.8384,2.8353,2.8375,2.8345,2.8355,2.8302,2.8295,2.8297,2.8299,2.8292,2.8291,2.8279,2.8285,2.831,2.8311,2.8312,2.8313,0,2.8398,2.8415,2.8363,2.8366,2.8366,2.8326,2.8328,2.8298,2.8307,2.8266,2.8258,2.8269,2.8236,2.8249,2.8212,2.822,2.815,2.8163,2.8154,2.8156,2.8105,2.8108,2.794,2.7918,2.8077,2.8075,2.8074,0,2.8322,2.8286,2.8287,2.8269,2.8265,2.8236,2.8221,2.8244,2.8226,2.8213,2.8184,2.8154,2.8131,2.8076,2.8079,2.8052,2.8062,2.8005,2.8058,2.8052,2.8058,2.8059,2.8055,2.7993,2.7992,2.799,2.7989,0,2.8184,2.8195,2.8172,2.8152,2.8133,2.8118,2.8106,2.8089,2.8112,2.809,2.8058,2.804,2.8005,2.7974,2.795,2.7945,2.7969,2.7973,2.796,2.795,2.7945,2.7945,2.8122,2.7976,2.7977,2.7978,2.7979,2.7979,2.8081,2.8051,2.8047,2.802,2.8014,2.8002,2.7974,2.798,2.7955,2.7929,2.7945,2.7906,2.7897,2.7867,2.7859,2.7828,2.785,2.7831,2.7825,2.782,2.7812,2.7953,2.7824,2.7824,2.7825,2.7825,2.7825,0,2.7943,2.7943,2.7919,2.7902,2.788,2.791,2.7898,2.7877,2.7844,2.7834,2.7812,2.7775,2.7745,2.7747,2.772,2.7694,2.7705,2.7686,2.7686,2.7684,2.7795,2.7808,2.7678,2.7678,2.7678,2.7678,2.7678,2.7678,2.7869,2.7819,2.783,2.7777,2.7777,2.7742,2.7732,2.772,2.7713,2.767,2.7647,2.765,2.7644,2.7617,2.7591,2.7592,2.7579,2.7555,2.756,2.7662,2.7677,2.7691,2.7703,2.7553,2.7553,2.7452,2.7451,2.745]}]]